TimeMST,TemperatureF,Dew PointF,Humidity,Sea Level PressureIn,VisibilityMPH,Wind Direction,Wind SpeedMPH,Gust SpeedMPH,PrecipitationIn,Events,Conditions,WindDirDegrees,DateUTC
12:15 AM,21.2,14.0,74,30.20,10.0,Calm,Calm,-,N/A,,Clear,0,2013-02-16 07:15:00
12:55 AM,19.4,12.2,74,30.19,10.0,Calm,Calm,-,N/A,,Clear,0,2013-02-16 07:55:00
1:15 AM,19.4,12.2,74,30.18,10.0,Calm,Calm,-,N/A,,Clear,0,2013-02-16 08:15:00
1:35 AM,19.4,14.0,80,30.18,10.0,Calm,Calm,-,N/A,,Clear,0,2013-02-16 08:35:00
1:55 AM,19.4,14.0,80,30.18,10.0,Calm,Calm,-,N/A,,Clear,0,2013-02-16 08:55:00
2:35 AM,17.6,12.2,79,30.17,10.0,Calm,Calm,-,N/A,,Clear,0,2013-02-16 09:35:00
2:55 AM,15.8,12.2,86,30.16,10.0,Calm,Calm,-,N/A,,Clear,0,2013-02-16 09:55:00
3:15 AM,19.4,14.0,80,30.15,10.0,Calm,Calm,-,N/A,,Clear,0,2013-02-16 10:15:00
4:15 AM,17.6,12.2,79,30.14,10.0,Calm,Calm,-,N/A,,Clear,0,2013-02-16 11:15:00
4:35 AM,15.8,12.2,86,30.14,10.0,North,3.5,-,N/A,,Clear,360,2013-02-16 11:35:00
4:55 AM,17.6,12.2,79,30.14,10.0,Calm,Calm,-,N/A,,Clear,0,2013-02-16 11:55:00
5:55 AM,17.6,12.2,79,30.12,10.0,Calm,Calm,-,N/A,,Clear,0,2013-02-16 12:55:00
6:35 AM,15.8,10.4,79,30.11,10.0,Calm,Calm,-,N/A,,Clear,0,2013-02-16 13:35:00
6:55 AM,14.0,10.4,86,30.11,10.0,West,3.5,-,N/A,,Clear,280,2013-02-16 13:55:00
7:15 AM,17.6,10.4,73,30.13,10.0,NE,5.8,-,N/A,,Clear,40,2013-02-16 14:15:00
7:55 AM,19.4,15.8,86,30.13,10.0,North,3.5,-,N/A,,Clear,360,2013-02-16 14:55:00
8:15 AM,21.2,17.6,86,30.15,10.0,Calm,Calm,-,N/A,,Clear,0,2013-02-16 15:15:00
8:35 AM,24.8,19.4,80,30.14,10.0,Calm,Calm,-,N/A,,Clear,0,2013-02-16 15:35:00
9:15 AM,30.2,19.4,64,30.14,10.0,East,3.5,-,N/A,,Clear,90,2013-02-16 16:15:00
9:35 AM,33.8,19.4,56,30.14,10.0,West,4.6,-,N/A,,Clear,270,2013-02-16 16:35:00
9:55 AM,32.0,19.4,60,30.14,10.0,Calm,Calm,-,N/A,,Clear,0,2013-02-16 16:55:00
10:15 AM,35.6,21.2,56,30.14,10.0,Calm,Calm,-,N/A,,Clear,0,2013-02-16 17:15:00
10:35 AM,37.4,21.2,52,30.14,10.0,SSE,5.8,-,N/A,,Clear,160,2013-02-16 17:35:00
11:15 AM,44.6,19.4,37,30.13,10.0,South,9.2,-,N/A,,Clear,170,2013-02-16 18:15:00
11:35 AM,46.4,19.4,34,30.12,10.0,South,9.2,-,N/A,,Clear,190,2013-02-16 18:35:00
11:55 AM,48.2,19.4,32,30.11,10.0,SSW,10.4,-,N/A,,Clear,210,2013-02-16 18:55:00
12:15 PM,48.2,19.4,32,30.10,10.0,WSW,9.2,-,N/A,,Clear,240,2013-02-16 19:15:00
12:35 PM,50.0,19.4,30,30.08,10.0,SW,8.1,-,N/A,,Clear,230,2013-02-16 19:35:00
12:55 PM,51.8,19.4,28,30.07,10.0,South,8.1,-,N/A,,Clear,190,2013-02-16 19:55:00
1:15 PM,53.6,17.6,24,30.07,10.0,South,4.6,-,N/A,,Clear,170,2013-02-16 20:15:00
1:35 PM,55.4,17.6,23,30.06,10.0,SSW,3.5,-,N/A,,Clear,200,2013-02-16 20:35:00
1:55 PM,55.4,15.8,21,30.05,10.0,WSW,4.6,-,N/A,,Clear,250,2013-02-16 20:55:00
2:15 PM,57.2,17.6,21,30.05,10.0,Calm,Calm,-,N/A,,Clear,0,2013-02-16 21:15:00
2:35 PM,55.4,15.8,21,30.04,10.0,Calm,Calm,-,N/A,,Clear,0,2013-02-16 21:35:00
2:55 PM,59.0,17.6,20,30.04,10.0,NNW,9.2,16.1,N/A,,Clear,340,2013-02-16 21:55:00
3:15 PM,59.0,15.8,19,30.03,10.0,NW,17.3,20.7,N/A,,Clear,320,2013-02-16 22:15:00
3:35 PM,59.0,14.0,17,30.03,10.0,NNW,18.4,24.2,N/A,,Clear,330,2013-02-16 22:35:00
3:55 PM,57.2,12.2,17,30.03,10.0,NW,17.3,-,N/A,,Clear,310,2013-02-16 22:55:00
4:15 PM,57.2,12.2,17,30.03,10.0,WNW,19.6,24.2,N/A,,Clear,300,2013-02-16 23:15:00
4:35 PM,55.4,10.4,17,30.03,10.0,NW,13.8,-,N/A,,Clear,320,2013-02-16 23:35:00
4:55 PM,55.4,12.2,18,30.02,10.0,NNW,11.5,-,N/A,,Clear,340,2013-02-16 23:55:00
5:15 PM,53.6,10.4,18,30.02,10.0,NNW,15.0,-,N/A,,Clear,340,2013-02-17 00:15:00
5:35 PM,50.0,8.6,19,30.01,10.0,NW,21.9,26.5,N/A,,Clear,320,2013-02-17 00:35:00
5:55 PM,48.2,6.8,19,30.01,10.0,North,9.2,-,N/A,,Clear,350,2013-02-17 00:55:00
6:15 PM,46.4,6.8,20,30.01,10.0,North,10.4,-,N/A,,Clear,360,2013-02-17 01:15:00
6:35 PM,46.4,8.6,22,30.01,10.0,SW,5.8,-,N/A,,Clear,220,2013-02-17 01:35:00
6:55 PM,48.2,8.6,20,30.00,10.0,Calm,Calm,-,N/A,,Clear,0,2013-02-17 01:55:00
7:15 PM,44.6,6.8,21,30.01,10.0,SE,5.8,-,N/A,,Clear,130,2013-02-17 02:15:00
7:35 PM,41.0,5.0,23,30.00,10.0,East,5.8,-,N/A,,Clear,90,2013-02-17 02:35:00
7:55 PM,41.0,6.8,24,30.00,10.0,East,9.2,-,N/A,,Clear,100,2013-02-17 02:55:00
8:15 PM,39.2,6.8,26,30.00,10.0,ESE,6.9,-,N/A,,Clear,120,2013-02-17 03:15:00
8:35 PM,39.2,6.8,26,29.99,10.0,ESE,9.2,-,N/A,,Clear,120,2013-02-17 03:35:00
9:15 PM,37.4,6.8,28,29.98,10.0,SE,3.5,-,N/A,,Clear,130,2013-02-17 04:15:00
9:35 PM,28.4,1.4,31,29.99,10.0,Calm,Calm,-,N/A,,Clear,0,2013-02-17 04:35:00
9:55 PM,33.8,8.6,35,29.99,10.0,North,9.2,-,N/A,,Clear,360,2013-02-17 04:55:00
10:15 PM,30.2,8.6,40,29.98,10.0,NE,5.8,-,N/A,,Clear,50,2013-02-17 05:15:00
10:35 PM,32.0,8.6,38,29.97,10.0,NE,3.5,-,N/A,,Clear,50,2013-02-17 05:35:00
10:55 PM,30.2,6.8,37,29.97,10.0,NE,4.6,-,N/A,,Clear,50,2013-02-17 05:55:00
11:15 PM,24.8,3.2,40,29.97,10.0,West,8.1,-,N/A,,Clear,280,2013-02-17 06:15:00
11:35 PM,28.4,12.2,51,29.95,10.0,Calm,Calm,-,N/A,,Clear,0,2013-02-17 06:35:00
11:55 PM,30.2,12.2,47,29.95,10.0,Calm,Calm,-,N/A,,Clear,0,2013-02-17 06:55:00